Location: Rainwater Observatory
(33.2833°N, 89.3833°W)
Time: 03:44:04
(UTC-05:00)

Daily predictions for brighter satellites

Satellite Brightness Start Highest point End
(mag) Time Altitude Azimuth Time Altitude Azimuth Time Altitude Azimuth
NOSS 3-2 (C) 3.9 00:11:29 59° NNW 00:11:29 59° NNW 00:17:03 10° NNE
H-2A R/B 4.3 00:16:38 14° WNW 00:16:38 14° WNW 00:18:17 10° WNW
Timation 2 Rocket 4.4 00:23:48 66° NNE 00:23:48 66° NNE 00:29:36 10° NNE
CZ-4C R/B 3.4 00:30:34 36° NW 00:30:34 36° NW 00:35:23 10° NNE
Cosmos 2082 Rocket 3.4 00:45:38 38° NNE 00:45:38 38° NNE 00:49:01 10° NNE
Cosmos 1697 Rocket 4.4 00:41:00 10° N 00:45:14 26° NE 00:45:14 26° NE
Cosmos 1833 Rocket 4.0 00:50:35 35° NE 00:50:35 35° NE 00:53:47 10° NNE
Lacrosse 5 3.9 01:04:13 10° NNW 01:08:15 23° NE 01:08:18 23° NE
CZ-2C R/B 3.7 01:16:42 10° N 01:20:21 43° N 01:20:21 43° N
Cosmos 2322 Rocket 4.4 01:37:31 10° NNE 01:41:16 18° ENE 01:43:42 14° E
CENTAUR R/B 3.0 01:50:52 52° NW 01:50:52 52° NW 01:56:50 10° NNE
Cosmos 1745 Rocket 4.3 01:54:49 63° NE 01:54:49 63° NE 02:00:25 10° NNE
Nadezhda 1 Rocket 4.4 01:58:39 10° N 02:04:27 53° ENE 02:04:27 53° ENE
Cosmos 1980 Rocket 2.8 02:04:36 10° NNW 02:08:46 51° NNW 02:08:46 51° NNW
CZ-2C R/B 4.4 02:21:10 33° NW 02:21:10 33° NW 02:24:36 10° NNW
Lacrosse 5 rocket 3.5 02:20:28 10° NNW 02:24:15 27° NE 02:25:32 24° ENE
CZ-3 Stage 3 3.7 01:55:41 10° WSW 02:25:48 72° S 02:30:25 10° E
Cosmos 2082 Rocket 4.5 02:27:27 12° WNW 02:28:05 12° NW 02:30:20 10° NNW
Cosmos 1697 Rocket 4.3 02:24:31 10° NW 02:26:56 23° NW 02:26:56 23° NW
Cosmos 1538 Rocket 4.5 02:27:54 10° NNW 02:32:04 56° N 02:32:04 56° N
ATLAS 5 CENTAUR R/B 2.6 02:37:19 47° ENE 02:37:19 47° ENE 02:41:12 10° NE
Cosmos 1777 Rocket 4.3 02:41:52 62° N 02:41:52 62° N 02:46:23 10° NNE
Cosmos 1455 4.1 02:42:20 10° N 02:44:26 28° NNE 02:44:26 28° NNE
Cosmos 773 Rocket 4.3 02:42:15 10° N 02:47:19 59° ENE 02:47:30 58° E
Resurs 1-4 Rocket 4.1 02:43:48 10° NE 02:47:33 19° E 02:49:25 16° ESE
Lacrosse 5 4.1 02:46:31 10° NW 02:47:25 15° NW 02:47:25 15° NW
IRS-P3 4.3 02:47:37 10° N 02:52:27 62° NW 02:52:27 62° NW
Cosmos 371 Rocket 4.5 02:49:37 10° NNW 02:52:28 34° NW 02:52:28 34° NW
Cosmos 1626 3.9 02:56:33 30° N 02:56:33 30° N 02:58:33 10° N
CBERS-1 4.0 02:52:11 10° NNE 02:57:01 79° N 02:57:01 79° N
Cosmos 1833 4.3 02:57:55 64° SE 02:58:19 66° ESE 03:04:02 10° NNE
ARIANE 5 R/B 3.4 02:59:49 10° NNE 03:04:34 39° E 03:05:29 36° SE
OAO 3 Rocket 3.3 03:08:11 68° NE 03:08:11 68° NE 03:12:28 10° E
USA 215 3.6 03:03:06 10° NE 03:09:27 57° NW 03:11:25 42° W
Cosmos 2181 Rocket 3.9 03:03:29 10° N 03:09:42 82° E 03:11:26 50° SSE
IRS-1D 4.5 03:05:41 10° NNE 03:10:43 42° E 03:12:09 34° SE
SL-16 R/B 2.0 03:09:13 10° NNW 03:14:52 75° WSW 03:15:18 71° SSW
ADEOS 3.4 03:16:21 10° N 03:21:34 72° WNW 03:22:03 67° WSW
AQUA 4.5 03:20:24 10° N 03:24:37 41° WNW 03:24:37 41° WNW
Cosmos 2322 Rocket 2.3 03:20:10 10° NNW 03:25:26 54° W 03:25:26 54° W
Okean 1-7 4.4 03:22:32 10° NNE 03:26:35 36° E 03:28:49 22° SE
Cosmos 1869 4.4 03:25:05 10° NNW 03:27:40 35° NW 03:27:40 35° NW
Cosmos 2150 Rocket 4.3 03:29:36 45° SSE 03:31:02 64° ESE 03:36:21 10° NNE
Cosmos 2074 Rocket 4.0 03:29:54 39° S 03:32:25 79° E 03:38:40 10° N
ISS -1.8 03:31:54 10° NNW 03:34:58 36° NE 03:38:00 10° ESE
SEDSat Delta rocket 4.0 03:35:04 38° W 03:37:44 65° SSW 03:44:23 10° ESE
Cosmos 2184 Rocket 4.0 03:36:51 36° S 03:39:41 87° E 03:46:03 10° N
Cosmos 2112 Rocket 3.8 03:35:16 10° NNW 03:40:29 83° WSW 03:42:37 36° S
CZ-2D R/B 2.3 03:36:26 10° NNE 03:41:41 66° ESE 03:44:01 33° S
EO 1 Del DPAF 3.3 03:44:32 52° SSE 03:45:24 78° ENE 03:49:20 10° N
Cosmos 2327 Rocket 4.4 03:42:56 38° SSW 03:45:26 81° W 03:51:40 10° N
SL-16 R/B 2.7 03:40:05 10° SSE 03:46:18 73° ENE 03:52:33 10° N
Cosmos 858 Rocket 4.5 03:45:30 41° S 03:47:22 80° ESE 03:52:38 10° NNE
Cosmos 2227 Rocket 4.1 03:50:37 10° SSE 03:54:59 24° E 03:59:22 10° NE
Cosmos 2360 Rocket 2.1 03:49:23 10° NNW 03:55:02 89° ENE 04:00:41 10° SSE
Okean O Rocket 2.9 03:51:53 10° NNE 03:56:00 37° E 03:59:01 16° SSE
In-Cosmos 22 Rocket 4.1 03:53:25 29° S 03:56:09 78° E 04:01:33 10° N
Lacrosse 5 rocket 3.2 03:59:31 10° WNW 04:01:02 19° WNW 04:01:02 19° WNW
Cosmos 1933 4.0 04:02:10 10° NNW 04:05:48 36° W 04:05:48 36° W
CZ-4B R/B 4.2 04:02:37 10° NNE 04:07:52 45° E 04:13:11 10° S
Cosmos 2219 3.5 04:07:10 32° SW 04:09:39 55° WNW 04:15:19 10° N
ATLAS CENTAUR R/B 2.6 04:06:21 10° NNW 04:10:45 46° ENE 04:14:48 10° SE
USA 229 DEB 4.0 04:07:20 28° WSW 04:11:01 57° WNW 04:17:54 10° NNE
Cosmos 1869 Rocket 4.4 04:10:26 29° W 04:11:03 31° W 04:14:59 10° NNW
USA 229 3.9 04:07:26 28° SW 04:11:08 58° WNW 04:18:00 10° NNE
ATLAS 2A CENTAUR R/B 3.9 04:07:37 26° SW 04:12:37 60° SSE 05:03:11 10° E
Cosmos 2322 3.7 04:09:39 10° NNW 04:15:19 62° WSW 04:20:55 10° S
Cosmos 990 Rocket 4.0 04:12:47 23° S 04:16:05 79° ESE 04:21:15 10° NNE
GPS 2-05 Rocket1 3.2 04:15:08 25° WNW 04:16:49 59° N 04:20:11 10° E
Cosmos 2221 Rocket 4.4 04:12:51 10° NNW 04:16:52 32° W 04:17:43 29° WSW
CZ-4B R/B 4.4 04:13:05 10° NNE 04:16:55 36° E 04:20:55 10° SSE
Meteor 1-26 Rocket 4.2 04:13:06 10° NNW 04:18:34 63° W 04:23:12 14° S
H-2A R/B 3.9 04:13:41 15° W 04:18:53 77° S 05:05:47 10° ESE
ATLAS 5 CENTAUR R/B 3.9 04:18:52 12° WNW 04:21:21 16° NW 04:24:30 10° N
CZ-2D R/B 3.3 04:20:44 10° N 04:24:50 76° WNW 04:27:15 23° SSW
DELTA 2 R/B (1) 3.9 04:22:36 25° SW 04:25:45 57° SSE 04:31:13 10° ENE
MTI 4.1 04:25:02 33° SSW 04:26:06 46° W 04:29:21 10° NNW
Resurs 1-4 Rocket 2.6 04:22:31 10° N 04:27:30 42° WNW 04:30:30 22° SW
Cosmos 2297 Rocket 3.8 04:22:50 10° SSE 04:27:44 31° ESE 04:32:40 10° NE
NOSS 3-1 (A) 4.0 04:26:26 12° S 04:31:34 50° ESE 04:37:34 10° NE
Cosmos 1340 Rocket 3.3 04:28:09 11° S 04:32:01 60° E 04:35:59 10° NNE
GOES 2 Rocket 3.6 04:30:14 24° SW 04:32:32 42° S 04:36:33 10° ESE
CZ-4B DEB 4.4 04:29:10 10° NNE 04:34:40 72° ESE 04:40:10 10° S
Cosmos 1356 Rocket 4.4 04:31:08 10° SSE 04:35:02 44° E 04:38:54 10° NNE
Cosmos 2333 Rocket 4.1 04:32:00 10° N 04:37:07 33° ENE 04:42:13 10° SE
Cosmos 220 Rocket 4.0 04:34:48 21° SSW 04:37:27 60° WNW 04:41:42 10° N
Cosmos 2082 4.2 04:34:00 10° S 04:39:35 60° ESE 04:45:14 10° NNE
Cosmos 1892 2.8 04:37:39 19° SSW 04:40:15 56° W 04:44:04 10° N
Cosmos 1825 4.5 04:38:48 10° SE 04:41:54 24° E 04:45:00 10° NE
Cosmos 1733 Rocket 3.1 04:38:50 17° SSW 04:42:03 56° W 04:46:21 10° N
ARIANE 5 R/B 4.1 04:39:49 10° NNW 04:43:21 19° WNW 04:45:49 14° WSW
Coronas F rocket 1.4 04:42:41 13° S 04:44:58 73° E 04:47:43 10° N
Thor Agena Rocket 3.6 04:42:14 10° SSE 04:47:31 87° WSW 04:52:50 10° NNW
COSMOS 2428 2.7 04:42:06 10° NNW 04:47:45 68° WSW 04:53:21 10° S
PAYLOAD B 4.2 04:42:16 10° N 04:47:46 74° WNW 04:53:16 10° SSW
OAO 3 Rocket 3.1 04:46:43 10° W 04:51:19 62° SSW 04:55:59 10° ESE
Iridium 4 Rocket 3.8 04:49:08 10° N 04:53:15 53° E 04:57:18 10° SSE
Cosmos 2341 Rocket 4.1 04:47:57 10° SSW 04:54:07 59° W 05:00:24 10° N
CZ-2C R/B 3.8 04:50:50 10° S 04:55:10 51° W 04:59:36 10° NNW
ATLAS 2AS CENTAUR R/B 4.4 04:49:30 10° S 04:55:48 33° ESE 05:02:35 10° NE
BREEZE-M DEB (TANK) 4.2 04:47:55 11° WSW 04:57:27 39° NW 05:00:56 10° NNE
Cosmos 1125 Rocket 3.6 04:52:20 10° SSW 04:57:35 81° ESE 05:02:54 10° NNE
Cosmos 389 Rocket 3.4 04:57:36 10° NNW 05:00:56 32° W 05:04:14 10° SSW
Cosmos 2237 Rocket 3.4 04:56:54 10° N 05:02:23 48° ENE 05:07:51 10° SE
Cosmos 292 Rocket 4.0 04:57:50 10° NNW 05:02:25 46° WSW 05:06:57 10° S
AVUM R/B 4.4 05:03:06 12° W 05:03:51 13° WNW 05:05:01 10° NNW
Sich 1 Rocket 3.8 05:00:42 10° SSW 05:04:58 52° W 05:09:15 10° N
SME Rocket 4.4 04:58:17 10° S 05:05:08 42° WSW 05:09:52 10° NNW
ASTRO E2 3.8 05:02:18 12° SW 05:05:31 31° SSE 05:09:05 10° E
NOSS 0 Rocket 4.3 04:59:52 10° NNW 05:06:01 71° ENE 05:12:07 10° SSE
Nadezhda 3 Rocket 4.3 05:01:49 10° NNW 05:07:36 45° W 05:13:23 10° SSW
SL-8 Rocket 4.0 05:04:29 10° S 05:10:40 76° W 05:16:56 10° N
ISS -1.6 05:09:14 10° W 05:11:08 15° SW 05:13:02 10° SSW
Cosmos 1378 Rocket 3.9 05:07:47 10° N 05:12:14 73° E 05:16:39 10° SSE
Cosmos 2219 Rocket 2.2 05:10:37 10° NNW 05:16:13 83° WSW 05:21:47 10° SSE
Cosmos 2366 rocket 4.1 05:10:36 10° S 05:16:48 85° E 05:22:58 10° N
SL-08 R/B 4.5 05:12:06 10° S 05:18:13 82° W 05:24:21 10° N
Cosmos 1908 Rocket 3.8 05:14:19 10° SSW 05:18:35 49° W 05:22:52 10° N
Cosmos 1269 Rocket 4.5 05:13:35 10° NNW 05:18:53 70° ENE 05:24:10 10° SSE
Cosmos 1975 Rocket 3.9 05:15:00 10° N 05:19:25 56° E 05:23:47 10° SSE
CZ-2D R/B 4.0 05:18:50 10° NW 05:21:09 13° WNW 05:23:30 10° W
Meteor PRIRODA 4.1 05:17:29 10° NNE 05:21:16 67° ESE 05:24:59 10° S
Okean 3 3.9 05:17:37 10° N 05:21:49 66° E 05:26:01 10° SSE
Meteor 2-6 Rocket 4.4 05:21:28 10° NNW 05:26:45 52° W 05:32:11 10° S
Meteor 1-27 Rocket 3.9 05:21:55 10° NNW 05:27:51 77° W 05:33:46 10° S
